TimeEST,TemperatureF,Dew PointF,Humidity,Sea Level PressureIn,VisibilityMPH,Wind Direction,Wind SpeedMPH,Gust SpeedMPH,PrecipitationIn,Events,Conditions,WindDirDegrees,DateUTC
12:54 AM,21.0,15.1,78,29.96,10.0,Calm,Calm,-,N/A,,Scattered Clouds,0,2013-02-05 05:54:00
1:54 AM,19.9,15.1,81,29.96,9.0,Calm,Calm,-,N/A,,Partly Cloudy,0,2013-02-05 06:54:00
2:54 AM,19.9,16.0,85,29.95,8.0,Calm,Calm,-,N/A,,Overcast,0,2013-02-05 07:54:00
3:54 AM,19.9,16.0,85,29.94,7.0,Calm,Calm,-,N/A,,Mostly Cloudy,0,2013-02-05 08:54:00
4:54 AM,18.0,15.1,88,29.94,5.0,Calm,Calm,-,N/A,,Clear,0,2013-02-05 09:54:00
5:54 AM,16.0,12.9,88,29.95,3.0,Calm,Calm,-,N/A,,Partly Cloudy,0,2013-02-05 10:54:00
6:54 AM,14.0,10.9,88,29.94,3.0,South,3.5,-,N/A,,Clear,190,2013-02-05 11:54:00
7:54 AM,16.0,12.9,88,29.95,3.0,SSW,4.6,-,N/A,,Clear,210,2013-02-05 12:54:00
7:57 AM,17.6,14.0,86,29.91,2.5,SSW,5.8,-,N/A,,Partly Cloudy,210,2013-02-05 12:57:00
8:45 AM,19.4,15.8,86,29.92,2.5,South,3.5,-,N/A,,Overcast,190,2013-02-05 13:45:00
8:54 AM,19.0,17.1,92,29.95,2.5,South,3.5,-,N/A,,Overcast,190,2013-02-05 13:54:00
9:05 AM,19.4,17.6,93,29.91,2.5,South,3.5,-,N/A,,Overcast,190,2013-02-05 14:05:00
9:54 AM,21.0,19.0,92,29.93,2.5,SSW,10.4,-,N/A,,Overcast,200,2013-02-05 14:54:00
10:01 AM,21.2,19.4,93,29.88,3.0,SSW,10.4,-,N/A,,Overcast,200,2013-02-05 15:01:00
10:06 AM,21.2,19.4,93,29.88,3.0,South,10.4,-,N/A,,Overcast,190,2013-02-05 15:06:00
10:21 AM,23.0,19.4,86,29.87,3.0,SSW,13.8,-,N/A,,Mostly Cloudy,200,2013-02-05 15:21:00
10:42 AM,24.8,19.4,80,29.87,4.0,SSW,11.5,-,N/A,,Mostly Cloudy,200,2013-02-05 15:42:00
10:54 AM,25.0,19.9,81,29.90,4.0,SSW,13.8,-,N/A,,Haze,200,2013-02-05 15:54:00
11:54 AM,27.0,21.0,78,29.89,7.0,SSW,11.5,-,N/A,,Mostly Cloudy,200,2013-02-05 16:54:00
12:54 PM,30.0,21.0,69,29.84,10.0,South,17.3,-,N/A,,Mostly Cloudy,190,2013-02-05 17:54:00
1:54 PM,30.0,19.9,66,29.83,10.0,SW,13.8,-,N/A,,Overcast,220,2013-02-05 18:54:00
2:39 PM,30.2,23.0,75,29.80,1.8,SW,13.8,21.9,0.00,Snow,Light Snow,220,2013-02-05 19:39:00
2:54 PM,28.9,23.0,78,29.83,1.2,SW,15.0,21.9,0.00,Snow,Light Snow,220,2013-02-05 19:54:00
3:16 PM,28.4,24.8,86,29.81,0.5,SW,10.4,-,0.00,Fog-Snow,Snow,230,2013-02-05 20:16:00
3:28 PM,28.4,26.6,93,29.81,0.5,SW,6.9,-,0.02,Fog-Snow,Snow,230,2013-02-05 20:28:00
3:54 PM,28.9,26.1,89,29.85,0.5,WSW,5.8,-,0.04,Fog-Snow,Snow,240,2013-02-05 20:54:00
3:57 PM,28.4,26.6,93,29.82,0.2,WSW,6.9,-,0.01,Fog-Snow,Heavy Snow,240,2013-02-05 20:57:00
4:09 PM,28.4,26.6,93,29.82,0.5,SW,6.9,-,0.02,Fog-Snow,Snow,230,2013-02-05 21:09:00
4:22 PM,28.4,26.6,93,29.82,0.5,WSW,6.9,-,0.03,Fog-Snow,Snow,240,2013-02-05 21:22:00
4:54 PM,28.9,27.0,92,29.87,0.5,WSW,8.1,-,0.05,Fog-Snow,Snow,240,2013-02-05 21:54:00
4:57 PM,28.4,26.6,93,29.83,0.5,WSW,8.1,-,0.00,Fog-Snow,Snow,250,2013-02-05 21:57:00
5:49 PM,30.2,26.6,86,29.86,2.0,West,10.4,-,0.01,Snow,Light Snow,280,2013-02-05 22:49:00
5:54 PM,30.0,26.1,85,29.90,2.5,WNW,9.2,-,0.01,Snow,Light Snow,290,2013-02-05 22:54:00
6:16 PM,28.4,24.8,86,29.86,4.0,West,10.4,-,0.00,,Overcast,270,2013-02-05 23:16:00
6:40 PM,28.4,24.8,86,29.87,7.0,West,12.7,-,0.00,,Overcast,270,2013-02-05 23:40:00
6:54 PM,28.9,25.0,85,29.91,7.0,West,8.1,-,0.00,,Overcast,280,2013-02-05 23:54:00
6:57 PM,28.4,24.8,86,29.88,7.0,West,8.1,-,N/A,,Overcast,280,2013-02-05 23:57:00
7:05 PM,28.4,24.8,86,29.88,7.0,West,9.2,-,N/A,,Overcast,270,2013-02-06 00:05:00
7:12 PM,28.4,24.8,86,29.88,7.0,West,10.4,-,N/A,,Overcast,270,2013-02-06 00:12:00
7:54 PM,30.0,25.0,82,29.94,6.0,WNW,10.4,-,N/A,,Haze,290,2013-02-06 00:54:00
8:54 PM,30.0,25.0,82,29.97,5.0,WNW,13.8,21.9,N/A,,Haze,300,2013-02-06 01:54:00
9:54 PM,28.9,26.1,89,30.00,4.0,NW,11.5,-,N/A,,Overcast,310,2013-02-06 02:54:00
10:11 PM,28.4,24.8,86,29.97,7.0,WNW,10.4,-,N/A,,Overcast,300,2013-02-06 03:11:00
10:54 PM,30.0,23.0,75,30.02,10.0,NW,9.2,-,N/A,,Overcast,310,2013-02-06 03:54:00
11:54 PM,28.9,21.9,75,30.04,10.0,NW,10.4,-,N/A,,Overcast,310,2013-02-06 04:54:00